This is the latest recevied weather packets stored in our database for station/object K4KMJ. If no packets are shown the sender has not sent any weather packets the latest 10 day(s).
| Time | Temp. | Humidity | Pressure | Rain* | Wind** | Luminosity | Snow |
|---|---|---|---|---|---|---|---|
| 1777742177 | 30° C | 71% | 1012.3 hPa | 0 mm | - | 282 W/m² | - |
| 1777741874 | 30° C | 71% | 1012.7 hPa | 0 mm | - | 229 W/m² | - |
| 1777741571 | 30° C | 71% | 1012.5 hPa | 0 mm | - | 255 W/m² | - |
| 1777741269 | 30° C | 71% | 1012.3 hPa | 0 mm | - | 273 W/m² | - |
| 1777740965 | 30° C | 71% | 1012.6 hPa | 0 mm | - | 282 W/m² | - |
| 1777740662 | 30° C | 71% | 1012.3 hPa | 0 mm | - | 321 W/m² | - |
| 1777740358 | 30° C | 71% | 1012.6 hPa | 0 mm | - | 328 W/m² | - |
| 1777740055 | 30° C | 70% | 1012.5 hPa | 0 mm | - | 320 W/m² | - |
| 1777739751 | 30° C | 70% | 1012.8 hPa | 0 mm | - | 363 W/m² | - |
| 1777739448 | 30° C | 70% | 1012.7 hPa | 0 mm | - | 336 W/m² | - |
| 1777739144 | 30° C | 68% | 1012.5 hPa | 0 mm | - | 369 W/m² | - |
| 1777738842 | 30.56° C | 69% | 1012.8 hPa | 0 mm | - | 407 W/m² | - |
| 1777738538 | 30.56° C | 69% | 1012.7 hPa | 0 mm | - | 446 W/m² | - |
| 1777738236 | 30.56° C | 70% | 1012.7 hPa | 0 mm | - | 554 W/m² | - |
| 1777737934 | 30° C | 72% | 1012.8 hPa | 0 mm | - | 826 W/m² | - |
| 1777737632 | 28.89° C | 73% | 1012.9 hPa | 0 mm | - | 514 W/m² | - |
| 1777737330 | 28.89° C | 73% | 1013 hPa | 0 mm | - | 376 W/m² | - |
| 1777737027 | 28.33° C | 73% | 1012.8 hPa | 0 mm | - | 323 W/m² | - |
| 1777736722 | 28.33° C | 73% | 1013.2 hPa | 0 mm | - | 296 W/m² | - |
| 1777736083 | 28.89° C | 74% | 1013.1 hPa | 0 mm | - | 481 W/m² | - |
| 1777735780 | 28.89° C | 74% | 1013.4 hPa | 0 mm | - | 424 W/m² | - |
| 1777735478 | 28.89° C | 74% | 1013.3 hPa | 0 mm | - | 330 W/m² | - |
| 1777735175 | 28.33° C | 75% | 1013.2 hPa | 0 mm | - | 342 W/m² | - |
| 1777734872 | 28.33° C | 75% | 1013.2 hPa | 0 mm | - | 298 W/m² | - |
| 1777734569 | 27.78° C | 76% | 1013.2 hPa | 0 mm | - | 368 W/m² | - |
* Rain latest hour (hover to see other rain measurements)
** Current wind speed in m/s (hover to see current wind gust speed)